Regional Weather Roundup
Issued by NWS State College, PA

Home | Current Version | Previous Version | Graphics & Text | Print | Product List | Glossary Off
Versions: 1 2 3 4 5 6 7 8 9 10 11 12 13 14 15 16 17 18 19 20 21 22 23 24 25 26 27 28 29 30 31 32 33 34 35 36 37 38 39 40 41 42 43 44 45 46 47 48 49 50

996
ASUS41 KCTP 101910
RWRCTP

REGIONAL WEATHER ROUNDUP
NATIONAL WEATHER SERVICE STATE COLLEGE PA
200 PM EST SAT DEC 10 2016

Note: "fair" indicates few or no clouds below 12,000 feet with no
significant weather and/or obstructions to visibility.

* = STATION THAT DOES NOT REPORT PRECIPITATION /E.G. RAIN...SNOW...ETC/
    THUNDER OR FOG.

PAZ002>004-007>009-013>016-020>023-029>032-102000-
WESTERN PENNSYLVANIA

CITY           SKY/WX    TMP DP  RH WIND       PRES   REMARKS
ERIE           LGT SNOW  26  20  77 SW12      30.38S
MEADVILLE      LGT SNOW  23  18  81 W10       30.35F WCI  12
FRANKLIN*        N/A     25  12  58 W14G20    30.36F WCI  13
NEW CASTLE     CLOUDY    28  15  58 W13       30.42S
BEAVER COUNTY  PTSUNNY   27  14  59 W12G18    30.41S
BUTLER*        CLOUDY    27  10  50 W9        30.43S
PITTSBURGH INT FLURRIES  28  14  55 SW10      30.42S
PITTSBURGH     CLOUDY    25  13  60 W9        30.41S
INDIANA*       CLOUDY    25  16  68 W16       30.40S WCI  12
LATROBE        LGT SNOW  27  16  63 W12G21    30.43S
WASHINGTON CO* PTSUNNY   27  14  59 SW10G16   30.44S
$$

PAZ004>006-010>012-017>019-024>028-033>037-041-042-045-046-049>053-102000-
CENTRAL PENNSYLVANIA

CITY           SKY/WX    TMP DP  RH WIND       PRES   REMARKS
BRADFORD       LGT SNOW  21  16  81 W9G18     30.26S WCI  11
DUBOIS         CLOUDY    24  13  62 W15       30.31F WCI  11
CLEARFIELD     FLURRIES  25  15  66 W9G16     30.34S
JOHNSTOWN      FLURRIES  21  14  74 W14       30.31R WCI   8
ALTOONA        CLOUDY    27  15  61 W12       30.37S
STATE COLLEGE  PTSUNNY   28  16  59 W10       30.35S
WILLIAMSPORT   CLOUDY    32  14  47 W17G23    30.35S
SELINSGROVE    CLOUDY    33  16  49 W10G21    30.38F
FT INDIANTOWN  MOSUNNY   34  11  38 W16G23    30.37S
CAPITAL CITY   PTSUNNY   36  14  40 W17G25    30.40S
HARRISBURG     PTSUNNY   35  17  47 NW16      30.39S
YORK           MOSUNNY   32  14  47 W9        30.40S
$$

PAZ038>040-043-044-047-048-054-055-060>062-067>071-102000-
EASTERN PENNSYLVANIA

CITY           SKY/WX    TMP DP  RH WIND       PRES   REMARKS
SCRANTON       LGT SNOW  28  22  78 SW8       30.30S
MOUNT POCONO   CLOUDY    25  14  63 W14       30.23S WCI  13
ALLENTOWN      CLOUDY    34  16  47 W9        30.35S
QUAKERTOWN*    MOCLDY    32  14  47 W8G16     30.35S
READING        PTSUNNY   34  12  40 W17G24    30.37R
LANCASTER      MOSUNNY   36  16  44 W15G28    30.37F
COATESVILLE    PTCLDY    36  14  41 W16G22    30.36F
POTTSTOWN      MOSUNNY   34  14  43 W13G20    30.38S
BLUE BELL      MOSUNNY   34  18  51 W9        30.36R
DOYLESTOWN     MOSUNNY   36  17  46 NW15G21   30.35R
WILLOW GROVE   NOT AVBL
NORTH PHILA    SUNNY     38  17  42 W14G21    30.38S
PHILADELPHIA   PTSUNNY   37  14  38 W9        30.38F
$$




USA.gov is the U.S. government's official web portal to all federal, state and local government web resources and services.